Flag for U.S.A. Weather past 2 weeks in Greeley, Colorado, U.S.A.

Now
57 °F

Passing clouds.


Feels Like: 55 °F
Forecast: 53 / 77 °F
Wind: 8 mph from East

Location: Greeley / Weld

Current Time: Sep 22, 2014 at 7:12:19 AM

Latest Report: Sep 22, 2014 at 6:35 AM


Visibility: 10 mi

Pressure: 30.17 "Hg

Humidity: 59%

Dew point: 43 °F

Location of GreeleyLocation

Historic Weather in Greeley — Graph

°F

Greeley temperature yesterday

Maximum temperature yesterday: 79 °F (at 4:15 PM)
Minimum temperature yesterday: 57 °F (at 6:35 AM)
Average temperature yesterday: 66 °F

Past Weeks' High & Low Weather Summary

 TemperatureHumidityPressure
High91 °F (Sep 18, 3:15 PM)87% (Sep 7, 8:15 AM)30.53 "Hg (Sep 7, 8:15 AM)
Low28 °F (Sep 13, 6:55 AM)13% (Sep 16, 5:35 PM)29.86 "Hg (Sep 9, 10:35 AM)
Average61 °F55%30.13 "Hg
* Reported Sep 7 5:15 AM — Sep 22 5:55 AM, Greeley, Weather by CustomWeather, © 2014

Note: Actual official high and low records may vary slightly from our data, if they occured in-between our weather recording intervals... More about our weather records

Advertising

Greeley weather history for previous 24 hours

 ConditionsComfort  
Time TempWeatherWind HumidityBarometerVisibility
5:55 AM
Sep 22
57 °FPassing clouds.5 mph59%30.18 "Hg10 mi
5:35 AM57 °FPassing clouds.9 mph59%30.18 "Hg10 mi
4:55 AM57 °FClear.6 mph55%30.20 "Hg10 mi
4:35 AM57 °FClear.5 mph55%30.20 "Hg10 mi
4:15 AM57 °FClear.5 mph55%30.21 "Hg10 mi
3:55 AM59 °FClear.7 mph51%30.21 "Hg10 mi
3:35 AM61 °FClear.12 mph48%30.21 "Hg10 mi
2:55 AM61 °FClear.13 mph52%30.22 "Hg10 mi
2:35 AM59 °FClear.12 mph59%30.23 "Hg10 mi
2:15 AM59 °FClear.8 mph68%30.24 "Hg10 mi
1:55 AM61 °FClear.7 mph72%30.26 "Hg10 mi
1:35 AM61 °FClear.7 mph68%30.26 "Hg10 mi
1:15 AM61 °FClear.7 mph68%30.26 "Hg10 mi
12:55 AM61 °FPassing clouds.8 mph68%30.26 "Hg10 mi
12:35 AM61 °FPassing clouds.6 mph63%30.27 "Hg10 mi
11:55 PM
Sep 21
61 °FClear.8 mph63%30.28 "Hg10 mi
11:35 PM61 °FClear.5 mph59%30.28 "Hg10 mi
11:15 PM61 °FClear.7 mph59%30.27 "Hg10 mi
10:55 PM63 °FClear.9 mph56%30.27 "Hg10 mi
10:35 PM63 °FClear.9 mph52%30.27 "Hg10 mi
10:15 PM63 °FClear.10 mph49%30.27 "Hg10 mi
9:55 PM63 °FClear.12 mph49%30.27 "Hg10 mi
9:35 PM63 °FClear.10 mph49%30.27 "Hg10 mi
9:15 PM64 °FPassing clouds.13 mph43%30.28 "Hg10 mi
8:55 PM64 °FClear.15 mph46%30.27 "Hg10 mi
8:35 PM64 °FClear.16 mph43%30.27 "Hg10 mi
8:15 PM66 °FClear.17 mph43%30.27 "Hg10 mi
7:55 PM68 °FSunny.16 mph40%30.26 "Hg10 mi
7:35 PM70 °FSunny.10 mph40%30.26 "Hg10 mi
7:15 PM70 °FSunny.8 mph40%30.25 "Hg10 mi
6:55 PM72 °FSunny.6 mph44%30.25 "Hg10 mi
6:15 PM73 °FPartly sunny.10 mph41%30.25 "Hg10 mi
5:55 PM75 °FPartly sunny.No wind39%30.24 "Hg10 mi
5:35 PM75 °FScattered clouds.8 mph41%30.24 "Hg10 mi
5:15 PM77 °FSunny.9 mph39%30.24 "Hg10 mi
4:55 PM79 °FPassing clouds.10 mph39%30.23 "Hg10 mi
4:35 PM79 °FPassing clouds.15 mph37%30.23 "Hg10 mi
4:15 PM79 °FSunny.12 mph37%30.24 "Hg10 mi
3:55 PM77 °FPassing clouds.14 mph39%30.24 "Hg10 mi
3:35 PM77 °FSunny.13 mph39%30.25 "Hg10 mi
3:15 PM75 °FSunny.8 mph39%30.26 "Hg10 mi
2:55 PM75 °FSunny.8 mph39%30.27 "Hg10 mi
2:35 PM75 °FSunny.14 mph39%30.27 "Hg10 mi
2:15 PM75 °FSunny.8 mph39%30.28 "Hg10 mi
1:55 PM73 °FSunny.12 mph41%30.29 "Hg10 mi
1:35 PM75 °FSunny.15 mph41%30.30 "Hg10 mi
1:15 PM75 °FPassing clouds.13 mph41%30.31 "Hg10 mi
12:55 PM72 °FPassing clouds.9 mph41%30.33 "Hg10 mi
12:35 PM72 °FSunny.7 mph41%30.33 "Hg10 mi
11:55 AM72 °FSunny.8 mph41%30.35 "Hg10 mi
11:35 AM70 °FSunny.12 mph40%30.36 "Hg10 mi
11:15 AM72 °FSunny.14 mph38%30.37 "Hg10 mi
10:55 AM70 °FPassing clouds.13 mph40%30.37 "Hg10 mi
10:35 AM66 °FScattered clouds.14 mph43%30.38 "Hg10 mi
10:15 AM66 °FSunny.13 mph43%30.38 "Hg10 mi
9:55 AM66 °FSunny.15 mph43%30.39 "Hg10 mi
9:35 AM64 °FSunny.13 mph43%30.39 "Hg10 mi
9:15 AM63 °FSunny.12 mph42%30.40 "Hg10 mi
8:55 AM61 °FSunny.8 mph45%30.40 "Hg9 mi
8:35 AM59 °FPassing clouds.8 mph48%30.40 "Hg10 mi
8:15 AM57 °FMostly cloudy.7 mph51%30.40 "Hg10 mi
7:55 AM57 °FOvercast.8 mph51%30.40 "Hg10 mi
7:35 AM57 °FMostly cloudy.7 mph51%30.39 "Hg10 mi
7:15 AM57 °FOvercast.8 mph51%30.38 "Hg10 mi
Weather by CustomWeather, © 2014

See weather overviewHow to use our weather pages